Munising, MI

5:51 AM EDT on September 21, 2017 (GMT -0400)
Munising

Weather History for KP53 - December, 2013

Change the Weather History Date:

Wednesday, December 25, 2013

  Actual Average (KISQ) Record (KISQ)
Temperature  
Mean Temperature 15 °F -  
Max Temperature 18 °F 24 °F 47 °F (1982)
Min Temperature 12 °F 9 °F -13 °F (2004)
Degree Days  
Heating Degree Days 50    
Moisture  
Dew Point 6 °F    
Average Humidity 69    
Maximum Humidity 77    
Minimum Humidity 62    
Precipitation  
Precipitation 0.09 in - - ()
Sea Level Pressure  
Sea Level Pressure 30.09 in    
Wind  
Wind Speed 7 mph (SSW)    
Max Wind Speed 14 mph    
Max Gust Speed 18 mph    
Averages and records for this station are not official NWS values.
T = Trace of Precipitation, MM = Missing Value Source: NWS Daily Summary

Daily Weather History Graph

Daily Weather History Graph

Search for Another Location

Airport or City:

Trip Planner

Search our weather history database for the weather conditions in past years. The results will help you decide how hot, cold, wet, or windy it might be!

Date:

Astronomy

Dec. 25, 2013 Rise Set
Actual Time 8:28 AM EST 5:04 PM EST
Civil Twilight 7:53 AM EST 5:39 PM EST
Nautical Twilight 7:15 AM EST 6:18 PM EST
Astronomical Twilight 6:38 AM EST 6:54 PM EST
Moon 12:36 AM EST (12/25) 12:26 PM EST (12/25)
Length of Visible Light 9h 45m
Length of Day
8h 36m
Waning Gibbous, 49% of the Moon is Illuminated
Dec 25
Waning Gibbous
Jan 1
New
Jan 7
First Quarter
Jan 15
Full
Jan 24
Last Quarter

Hourly Weather History & Observations

Time (EST) Temp. Windchill Dew Point Humidity Pressure Visibility Wind Dir Wind Speed Gust Speed Precip Events Conditions
12:56 AM 12.9 °F 6.9 °F 3.9 °F 67% 30.29 in - South 3.5 mph - N/A   Unknown
1:56 AM 15.1 °F 6.4 °F 6.1 °F 68% 30.25 in - South 5.8 mph - N/A   Unknown
2:56 AM 15.1 °F 5.2 °F 7.0 °F 70% 30.22 in - South 6.9 mph - N/A   Unknown
3:56 AM 15.1 °F 6.4 °F 9.0 °F 77% 30.19 in - South 5.8 mph - 0.02 in   Unknown
4:56 AM 15.1 °F 7.7 °F 9.0 °F 77% 30.16 in - South 4.6 mph - 0.04 in   Unknown
5:56 AM 15.1 °F 5.2 °F 9.0 °F 77% 30.13 in - SSW 6.9 mph - 0.02 in   Unknown
6:56 AM 15.1 °F 4.2 °F 9.0 °F 77% 30.09 in - SSW 8.1 mph - 0.01 in   Unknown
7:56 AM 14.0 °F 2.0 °F 7.0 °F 74% 30.09 in - South 9.2 mph - N/A   Unknown
8:56 AM 14.0 °F 3.9 °F 6.1 °F 71% 30.09 in - South 6.9 mph - N/A   Unknown
9:56 AM 12.9 °F 0.7 °F 5.0 °F 71% 30.09 in - SSW 9.2 mph - N/A   Unknown
10:56 AM 14.0 °F 5.1 °F 6.1 °F 71% 30.08 in - SSW 5.8 mph - N/A   Unknown
11:56 AM 14.0 °F 2.0 °F 5.0 °F 67% 30.06 in - SW 9.2 mph 18.4 mph N/A   Unknown
12:56 PM 16.0 °F 1.7 °F 6.1 °F 65% 30.04 in - SSW 13.8 mph 18.4 mph N/A   Unknown
1:56 PM 17.1 °F 5.8 °F 7.0 °F 65% 30.02 in - SW 9.2 mph 17.3 mph N/A   Unknown
2:56 PM 17.1 °F 5.8 °F 7.0 °F 65% 30.01 in - SSW 9.2 mph - N/A   Unknown
3:56 PM 18.0 °F 11.1 °F 7.0 °F 62% 30.02 in - SSW 4.6 mph - N/A   Unknown
4:56 PM 17.1 °F 7.6 °F 6.1 °F 62% 30.02 in - SSW 6.9 mph - N/A   Unknown
5:56 PM 16.0 °F 5.3 °F 6.1 °F 65% 30.03 in - SSW 8.1 mph - N/A   Unknown
6:56 PM 14.0 °F 2.9 °F 5.0 °F 67% 30.04 in - SW 8.1 mph - N/A   Unknown
7:56 PM 14.0 °F 2.9 °F 5.0 °F 67% 30.04 in - SW 8.1 mph - N/A   Unknown
8:56 PM 12.9 °F 0.7 °F 3.9 °F 67% 30.03 in - SW 9.2 mph - N/A   Unknown
9:56 PM 12.9 °F 1.6 °F 5.0 °F 71% 30.03 in - SW 8.1 mph - N/A   Unknown
10:56 PM 14.0 °F 2.9 °F 6.1 °F 71% 30.02 in - SW 8.1 mph - N/A   Unknown
11:56 PM 14.0 °F 2.9 °F 6.1 °F 71% 30.01 in - SW 8.1 mph - N/A   Unknown